GOKTURK 1A

Last updated on Mon Sep 07 2026 00:02:46 GMT+0000 (Coordinated Universal Time)

1 41875U 16073A 26249.64616550 .00000125 00000+0 33758-4 0 9995 2 41875 98.1548 143.1237 0001563 80.5773 279.5605 14.62744673520733
UTC large
Height (km)
Speed (km/s)
/
Latitude / Longitude
Inclination (degrees)
Orbital Period (minutes)
Azimuth
Elevation
Range (km)
Doppler Factor

Next 0 passes for location: London (51.5072 / 0.1276)

No passes found over London.
GOKTURK 1A